date,time,DOY,Ta_1_1_1,RH_1_1_1,LWin_1_1_1,LWout_1_1_1,SWin_1_1_1,SWout_1_1_1,PPFD_1_1_1,SWC_1_1_1,Ts_1_1_1
[yyyy-mm-dd],[HH:MM],[ddd.ddd],[K],[%],[W+1m-2],[W+1m-2],[W+1m-2],[W+1m-2],[µmol+1m-2s-1],[m+3m-3],[K]
2013-09-28,00:30,271.020,288.09933333333339,71.396666666666675,-8.8386666666666702,-9999.0,0.16599999999999998,-3.8113333333333324,0.0000000000000000,0.20999999999999999,287.18433333333337
2013-09-28,01:00,271.041,287.92066666666670,71.369333333333330,-8.3430000000000000,-9999.0,0.21700000000000008,-3.5260000000000002,3.33333333333333322E-004,0.20999999999999999,287.05733333333342
2013-09-28,01:30,271.062,287.63666666666671,71.399333333333317,-8.7653333333333343,-9999.0,0.20966666666666667,-3.9616666666666664,3.33333333333333322E-004,0.20999999999999999,286.92966666666666
2013-09-28,02:00,271.083,287.43766666666659,69.762000000000000,-8.5493333333333332,-9999.0,0.32233333333333342,-3.9843333333333333,6.66666666666666644E-004,0.20999999999999999,286.80033333333336
2013-09-28,02:30,271.104,287.16700000000009,68.115666666666669,-8.7180000000000053,-9999.0,0.20733333333333331,-3.8563333333333341,0.0000000000000000,0.20999999999999999,286.66233333333332
2013-09-28,03:00,271.124,286.91766666666666,66.613000000000000,-8.2720000000000002,-9999.0,0.29666666666666669,-3.7266666666666670,0.0000000000000000,0.20999999999999999,286.52899999999994
2013-09-28,03:30,271.145,286.79933333333332,65.521333333333331,-8.5173333333333350,-9999.0,0.22866666666666674,-3.8416666666666668,6.66666666666666644E-004,0.20999999999999999,286.38400000000001
2013-09-28,04:00,271.166,286.55733333333336,65.806999999999988,-8.4480000000000004,-9999.0,0.31300000000000006,-4.0409999999999995,3.33333333333333322E-004,0.20999999999999999,286.25266666666664
2013-09-28,04:30,271.187,286.26400000000007,67.559999999999988,-8.6316666666666659,-9999.0,0.28700000000000003,-4.1336666666666657,3.33333333333333322E-004,0.20999999999999999,286.11533333333330
2013-09-28,05:00,271.208,286.00566666666668,69.349666666666678,-8.5700000000000003,-9999.0,0.33699999999999986,-4.1323333333333334,0.0000000000000000,0.20999999999999999,285.99566666666669
2013-09-28,05:30,271.229,285.84366666666671,71.057000000000002,-8.3793333333333333,-9999.0,0.42099999999999999,-4.0806666666666667,4.50000000000000122E-002,0.20999999999999999,285.88533333333334
2013-09-28,06:00,271.249,285.91833333333341,72.466333333333324,-8.2473333333333336,-9999.0,1.0613333333333335,-0.66933333333333311,6.8490000000000011,0.20999999999999999,285.79200000000009
2013-09-28,06:30,271.270,286.26500000000004,72.429666666666662,-8.6303333333333327,-9999.0,12.233666666666666,40.106999999999999,68.282333333333327,0.20999999999999999,285.72366666666676
2013-09-28,07:00,271.291,286.66133333333335,72.263333333333335,-9.2693333333333321,-9999.0,25.352333333333334,110.96733333333333,189.93266666666665,0.20999999999999999,285.70733333333334
2013-09-28,07:30,271.312,287.30800000000005,71.032333333333327,-9.4430000000000014,-9999.0,40.217999999999996,201.66733333333332,358.57433333333324,0.20999999999999999,285.75433333333331
2013-09-28,08:00,271.333,288.14533333333333,68.822000000000017,-8.6796551724137938,-9999.0,46.751999999999988,254.87766666666664,479.31366666666673,0.20999999999999999,285.88066666666668
2013-09-28,08:30,271.354,288.74466666666660,68.063333333333333,-7.9310000000000000,-9999.0,58.196000000000005,329.02466666666675,633.56566666666674,0.20999999999999999,286.08966666666663
2013-09-28,09:00,271.374,289.58999999999997,67.050333333333313,-8.5383333333333340,-9999.0,72.579999999999998,423.92733333333331,819.11600000000010,0.20999999999999999,286.35666666666663
2013-09-28,09:30,271.395,290.55066666666676,66.043666666666653,-7.9286666666666656,-9999.0,81.176333333333346,487.23600000000005,958.66733333333320,0.20999999999999999,286.66033333333331
2013-09-28,10:00,271.416,291.65333333333342,65.128000000000014,-7.5916666666666650,-9999.0,85.945000000000007,518.97966666666662,1034.5783333333334,0.20999999999999999,287.08199999999999
2013-09-28,10:30,271.437,292.69466666666682,62.361999999999995,-7.4990000000000032,-9999.0,86.425666666666658,531.26300000000003,1064.3846666666668,0.20999999999999999,287.51666666666659
2013-09-28,11:00,271.458,293.22833333333341,60.710666666666683,-7.9266666666666659,-9999.0,85.031333333333322,533.06133333333332,1074.3809999999999,0.20733333333333334,287.93866666666668
2013-09-28,11:30,271.479,293.54733333333337,60.255333333333319,-6.9073333333333347,-9999.0,95.984666666666669,597.30133333333322,1215.1443333333332,0.20966666666666664,288.34133333333341
2013-09-28,12:00,271.499,294.02100000000002,60.294333333333320,-6.6056666666666670,-9999.0,104.88966666666668,653.07833333333315,1321.7010000000005,0.20333333333333345,288.74100000000004
2013-09-28,12:30,271.520,294.55666666666667,58.883666666666656,-6.5086666666666657,-9999.0,100.55233333333334,624.88533333333328,1248.5456666666664,0.20566666666666666,289.08900000000006
2013-09-28,13:00,271.541,294.66600000000011,57.873000000000012,-6.1723333333333326,-9999.0,95.027666666666661,589.89199999999994,1223.3363333333336,0.20266666666666674,289.33700000000010
2013-09-28,13:30,271.562,294.58366666666666,58.154999999999987,-7.0716666666666672,-9999.0,56.353333333333332,359.73933333333332,761.47233333333338,0.20000000000000009,289.51533333333339
2013-09-28,14:00,271.583,294.01533333333339,60.367666666666658,-7.9833333333333343,-9999.0,18.314666666666668,119.16066666666667,255.55233333333337,0.20000000000000009,289.50700000000001
2013-09-28,14:30,271.604,293.84000000000003,60.855666666666679,-7.8246666666666673,-9999.0,9.5073333333333334,62.929666666666655,143.54599999999996,0.20000000000000009,289.35633333333340
2013-09-28,15:00,271.624,293.72666666666669,61.496333333333354,-7.5769999999999991,-9999.0,6.7679999999999998,46.267000000000003,108.40000000000003,0.20000000000000009,289.21333333333337
2013-09-28,15:30,271.645,293.35566666666665,64.080000000000013,-7.1346666666666652,-9999.0,4.8270000000000000,30.632999999999999,76.921666666666681,0.20000000000000009,289.12233333333342
2013-09-28,16:00,271.666,291.02066666666667,81.873000000000019,-5.4236666666666657,-8.6599999999999966,7.0166666666666675,26.326666666666664,71.935999999999993,0.20000000000000009,289.02466666666675
2013-09-28,16:30,271.687,289.60000000000002,93.763999999999982,-4.1333333333333337,-5.4866666666666672,2.9739999999999998,14.376333333333331,37.025000000000006,0.20000000000000009,288.88766666666663
2013-09-28,17:00,271.708,288.42166666666668,94.217333333333329,-3.2886666666666673,-5.3323333333333327,0.60966666666666680,4.1570000000000000,12.096666666666664,0.21033333333333326,288.75733333333329
2013-09-28,17:30,271.729,286.52466666666663,94.777666666666676,-3.6646666666666676,-4.5839999999999996,0.59933333333333327,3.4893333333333332,9.6256666666666693,0.21999999999999995,288.47100000000012
2013-09-28,18:00,271.749,284.94400000000007,95.427666666666653,-3.7363333333333326,-4.0736666666666670,0.69300000000000017,1.4740000000000000,3.1706666666666670,0.21999999999999995,287.98999999999995
2013-09-28,18:30,271.770,284.36066666666670,97.187333333333328,-4.2806666666666660,-3.7763333333333327,0.38633333333333331,-0.58733333333333348,1.36666666666666672E-002,0.21999999999999995,287.48533333333341
2013-09-28,19:00,271.791,283.98600000000005,93.158000000000044,-5.0753333333333321,-7.9047999999999989,1.5260000000000000,-0.66933333333333322,-3.33333333333333311E-003,0.22100000000000003,287.11000000000001
2013-09-28,19:30,271.812,283.50699999999995,95.135666666666694,-5.8736666666666677,-8.5733333333333324,0.97766666666666702,-1.2940000000000000,-5.66666666666666794E-003,0.23000000000000018,286.77000000000004
2013-09-28,20:00,271.833,283.38366666666673,95.749999999999986,-6.4683333333333346,-9999.0,0.83499999999999963,-2.0596666666666668,-1.20000000000000020E-002,0.23000000000000018,286.48466666666667
2013-09-28,20:30,271.854,283.26666666666671,94.790999999999997,-6.8843333333333341,-6.6924999999999999,0.90400000000000003,-1.9556666666666660,-4.66666666666666619E-003,0.23000000000000018,286.24433333333326
2013-09-28,21:00,271.874,283.23066666666671,96.176999999999978,-5.4426666666666677,-5.4503333333333321,0.49633333333333335,-0.99666666666666648,-5.33333333333333402E-003,0.23000000000000018,286.04399999999998
2013-09-28,21:30,271.895,283.24566666666664,96.183333333333337,-5.4296666666666660,-5.8793750000000005,0.63066666666666671,-1.5123333333333335,-1.36666666666666672E-002,0.23000000000000018,285.89500000000004
2013-09-28,22:00,271.916,283.18900000000002,93.780999999999963,-6.8516666666666675,-9999.0,1.3336666666666668,-2.9669999999999996,-8.66666666666666627E-003,0.23000000000000018,285.75633333333337
2013-09-28,22:30,271.937,283.09100000000001,92.987333333333325,-6.8433333333333337,-9999.0,1.1043333333333334,-1.6866666666666665,-9.33333333333333411E-003,0.23000000000000018,285.58900000000000
2013-09-28,23:00,271.958,283.07666666666677,91.970666666666659,-7.0853333333333337,-9.7599999999999998,0.88666666666666660,-1.4060000000000004,-1.33333333333333342E-002,0.23000000000000018,285.46166666666670
2013-09-28,23:30,271.979,282.98766666666671,90.086333333333343,-6.9866666666666655,-9999.0,0.96433333333333315,-1.7086666666666668,-1.66666666666666677E-003,0.23000000000000018,285.35999999999996
2013-09-29,00:00,272.000,282.45766666666663,89.117666666666679,-7.8116666666666674,-9999.0,1.0430000000000001,-3.9676666666666671,-4.00000000000000008E-003,0.23000000000000018,285.23199999999997
